Regional Weather Roundup
Issued by NWS

Home | Current Version | Previous Version | Text Only | Print | Product List | Glossary On
Versions: 1 2 3 4 5 6 7 8 9 10 11 12 13 14 15 16 17 18 19 20 21 22 23 24 25 26 27
000
ASUS44 KJAN 230310
RWRMS

MISSISSIPPI HOURLY WEATHER ROUNDUP
NATIONAL WEATHER SERVICE JACKSON MS
900 PM CST WED FEB 22 2017

NOTE: "FAIR: INDICATES FEW OR NO CLOUDS BELOW 12,000 FEET WITH NO
SIGNIFICANT WEATHER AND/OR OBSTRUCTIONS TO VISIBILITY.

MSZ001>002-007>008-010>013-018>021-025>028-034>036-230400-
NORTHWEST MISSISSIPPI

CITY           SKY/WX    TMP DP  RH WIND       PRES   REMARKS
BATESVILLE     FAIR      56  54  94 CALM      29.84S
CLEVELAND      FAIR      58  58 100 CALM      29.84S
GREENWOOD      CLEAR     57  53  86 CALM      29.85R
GREENVILLE     CLOUDY    57  55  93 SE3       29.83S
OXFORD         FAIR      54  52  94 SE3       29.86S
TUNICA         MOCLDY    61  57  88 SE5       29.84R
WINONA         FAIR      53  53 100 CALM      29.85R
$$

MSZ003>006-009-014>017-022>024-029>033-037>039-230400-
NORTHEAST MISSISSIPPI

CITY           SKY/WX    TMP DP  RH WIND       PRES   REMARKS
COLUMBUS AFB   CLEAR     55  54  99 CALM      29.83S
CORINTH        FAIR      59  55  88 CALM      29.83S
GOLDN TRIANGLE CLEAR     55  52  88 CALM      29.80S
TUPELO         CLEAR     58  55  90 CALM      29.84R
$$

MSZ040-058-230400-
CENTRAL MISSISSIPPI

CITY           SKY/WX    TMP DP  RH WIND       PRES   REMARKS
JACKSON INTL   CLEAR     57  54  89 CALM      29.84R
JACKSON HAWKNS CLEAR     59  53  80 CALM      29.85R
MADISON        FAIR     N/A N/A N/A CALM      29.85R
MERIDIAN KEY   CLEAR     57  56  96 CALM      29.83R
MERIDIAN NAS   NOT AVBL
VICKSBURG VKS  MOCLDY    61  57  88 CALM      29.82S
$$

MSZ059>079-230400-
SOUTH MISSISSIPPI

CITY           SKY/WX    TMP DP  RH WIND       PRES   REMARKS
BROOKHAVEN     FAIR     N/A N/A N/A CALM      29.86R
COLUMBIA       FAIR      54 N/A N/A CALM      29.87R
HATTIESBURG    CLEAR     56  55  97 CALM      29.83S
LAUREL         FAIR      55  55 100 NW3       29.84R
MCCOMB         CLEAR     58  52  80 CALM      29.84R
NATCHEZ        CLEAR     57  52  82 CALM      29.84S
PINE BELT      CLEAR     55  52  88 CALM      29.86R
$$

MSZ080>082-230400-
COASTAL MISSISSIPPI

CITY           SKY/WX    TMP DP  RH WIND       PRES   REMARKS
BILOXI         CLEAR     63  57  81 N5        29.81S
PASCAGOULA     CLEAR     62  55  77 CALM      29.81R
GULFPORT       CLEAR     60  56  86 N5        29.82R
$$

LAZ007>009-015>016-023>026-230400-
NORTHEAST LOUISIANA

CITY           SKY/WX    TMP DP  RH WIND       PRES   REMARKS
BASTROP        FAIR      55  54  97 CALM      29.84S
TALLULAH/VBURG PTCLDY    61  57  87 CALM      29.85R
VIDALIA        FAIR      56  55  95 CALM      29.84R
$$




USA.gov is the U.S. government's official web portal to all federal, state and local government web resources and services.